EW8735 Weather Reports


Display with metric or nautical units.
time (UTC)temp
F
wind
direction
speed
MPH
gust
MPH
rain 1hr
in
rain 24hr
in
rain mn
in
humidity
%
barometer
mb
20260509001518 73 259 0.0 0.0 0.00 0.00 0.00 25 1012.9
20260509000016 73 268 0.0 0.0 0.00 0.00 0.00 25 1012.9
20260508234516 73 359 0.0 0.0 0.00 0.00 0.00 25 1012.9
20260508233015 73 243 0.0 0.0 0.00 0.00 0.00 23 1012.9
20260508231514 73 250 0.0 0.0 0.00 0.00 0.00 20 1013.1
20260508230014 74 288 0.0 0.0 0.00 0.00 0.00 22 1012.8
20260508224513 72 279 0.0 0.0 0.00 0.00 0.00 23 1012.9
20260508223021 74 258 0.0 0.0 0.00 0.00 0.00 25 1013.0
20260508221511 72 293 0.0 0.0 0.00 0.00 0.00 25 1012.9
20260508220011 73 262 0.0 0.0 0.00 0.00 0.00 25 1013.0
20260508214510 73 258 0.0 0.0 0.00 0.00 0.00 25 1013.0
20260508213010 73 293 0.0 0.0 0.00 0.00 0.00 30 1013.0
20260508211520 73 305 0.0 0.0 0.00 0.00 0.00 34 1013.0
20260508210009 73 319 0.0 0.0 0.00 0.00 0.00 33 1013.0
20260508204508 74 283 0.0 0.0 0.00 0.00 0.00 36 1012.7
20260508203006 75 291 0.0 0.0 0.00 0.00 0.00 32 1012.5
20260508201504 74 19 0.0 0.0 0.00 0.00 0.00 34 1012.4
20260508200003 73 303 0.0 0.0 0.00 0.00 0.00 35 1012.4
20260508194604 71 349 0.0 0.0 0.00 0.00 0.00 34 1012.5
20260508193105 70 359 0.0 0.0 0.00 0.00 0.00 37 1012.6
20260508191556 70 359 0.0 0.0 0.00 0.00 0.00 33 1012.7
20260508190057 69 354 0.0 0.0 0.00 0.00 0.00 33 1013.0
20260508184555 70 13 0.0 0.0 0.00 0.00 0.00 36 1013.1
20260508183051 68 13 0.0 0.0 0.00 0.00 0.00 37 1013.3
20260508181551 68 13 0.0 0.0 0.00 0.00 0.00 39 1013.5
20260508180048 67 14 0.0 0.0 0.00 0.00 0.00 42 1013.6
20260508174550 66 13 0.0 0.0 0.00 0.00 0.00 44 1013.6
20260508173045 65 13 0.0 0.0 0.00 0.00 0.00 44 1013.7
20260508171540 65 341 0.0 0.0 0.00 0.00 0.00 40 1013.7
20260508170044 64 347 0.0 0.0 0.00 0.00 0.00 41 1013.6
20260508164542 64 359 0.0 0.0 0.00 0.00 0.00 41 1013.5
20260508163035 64 347 0.0 0.0 0.00 0.00 0.00 45 1013.4
20260508161541 63 342 0.0 0.0 0.00 0.00 0.00 48 1013.3
20260508160029 62 343 0.0 0.0 0.00 0.00 0.00 47 1013.2
20260508154537 62 342 0.0 0.0 0.00 0.00 0.00 47 1013.1
20260508153029 62 342 0.0 0.0 0.00 0.00 0.00 39 1013.1
20260508151531 62 340 0.0 0.0 0.00 0.00 0.00 37 1013.1
20260508150026 60 340 0.0 0.0 0.00 0.00 0.00 44 1013.1
20260508144517 58 341 0.0 0.0 0.00 0.00 0.00 55 1013.1
20260508143013 56 330 0.0 0.0 0.00 0.00 0.00 48 1013.2
20260508141517 54 329 0.0 0.0 0.00 0.00 0.00 51 1012.9
20260508140018 51 322 0.0 0.0 0.00 0.00 0.00 55 1013.0
20260508134508 50 237 0.0 0.0 0.00 0.00 0.00 53 1012.7
20260508133005 49 222 0.0 0.0 0.00 0.00 0.00 54 1012.5
20260508131504 48 222 0.0 0.0 0.00 0.00 0.00 55 1012.5
20260508130003 48 220 0.0 0.0 0.00 0.00 0.00 52 1012.4
20260508124502 51 221 0.0 0.0 0.00 0.00 0.00 46 1012.3
20260508123001 55 222 0.0 0.0 0.00 0.00 0.00 38 1012.4
20260508121635 55 222 0.0 0.0 0.00 0.00 0.00 37 1012.4
20260508120101 51 222 0.0 0.0 0.00 0.00 0.00 41 1012.5
20260508114557 49 222 0.0 0.0 0.00 0.00 0.00 43 1012.4
20260508113059 48 222 0.0 0.0 0.00 0.00 0.00 47 1012.2
20260508111558 48 222 0.0 0.0 0.00 0.00 0.00 48 1012.1
20260508110052 48 222 0.0 0.0 0.00 0.00 0.00 47 1012.0
20260508104558 48 222 0.0 0.0 0.00 0.00 0.00 47 1011.9
20260508103051 49 222 0.0 0.0 0.00 0.00 0.00 44 1011.8
20260508101549 47 222 0.0 0.0 0.00 0.00 0.00 46 1011.8
20260508100048 46 222 0.0 0.0 0.00 0.00 0.00 50 1011.8
20260508094548 46 222 0.0 0.0 0.00 0.00 0.00 51 1011.8
20260508093050 49 222 0.0 0.0 0.00 0.00 0.00 44 1011.8
20260508091547 52 222 0.0 0.0 0.00 0.00 0.00 37 1011.5
20260508090051 52 223 0.0 0.0 0.00 0.00 0.00 33 1011.5
20260508084534 52 222 0.0 0.0 0.00 0.00 0.00 32 1011.5
20260508083033 51 222 0.0 0.0 0.00 0.00 0.00 33 1011.7
20260508081538 52 222 0.0 0.0 0.00 0.00 0.00 33 1011.7
20260508080032 55 222 0.0 0.0 0.00 0.00 0.00 28 1011.8
20260508074526 52 222 0.0 0.0 0.00 0.00 0.00 31 1011.8
20260508073023 52 222 0.0 0.0 0.00 0.00 0.00 37 1011.8
20260508071524 53 222 0.0 0.0 0.00 0.00 0.00 38 1011.8
20260508070018 54 222 0.0 0.0 0.00 0.00 0.00 38 1011.6
20260508064528 54 222 0.0 0.0 0.00 0.00 0.00 38 1011.4
20260508063016 53 222 0.0 0.0 0.00 0.00 0.00 44 1011.5
20260508061520 52 222 0.0 0.0 0.00 0.00 0.00 47 1011.4
20260508060022 52 222 0.0 0.0 0.00 0.00 0.00 49 1011.3
20260508054522 52 221 0.0 0.0 0.00 0.00 0.00 48 1011.2
20260508053015 53 222 0.0 0.0 0.00 0.00 0.00 48 1011.1
20260508051514 54 222 0.0 0.0 0.00 0.00 0.00 47 1010.9
20260508050017 55 222 0.0 0.0 0.00 0.00 0.00 44 1010.8
20260508044513 54 222 0.0 0.0 0.00 0.00 0.00 46 1010.6
20260508043016 54 222 0.0 0.0 0.00 0.00 0.00 46 1010.5
20260508041512 54 222 0.0 0.0 0.00 0.00 0.00 48 1010.5
20260508040023 54 222 0.0 0.0 0.00 0.00 0.00 49 1010.4
20260508034515 55 222 0.0 0.0 0.00 0.00 0.00 51 1010.3
20260508033011 57 222 0.0 0.0 0.00 0.00 0.00 49 1010.1
20260508031511 58 222 0.0 0.0 0.00 0.00 0.00 49 1010.1
20260508030013 62 222 0.0 0.0 0.00 0.00 0.00 47 1009.9
20260508024517 64 222 0.0 0.0 0.00 0.00 0.00 43 1009.8
20260508023010 66 222 0.0 0.0 0.00 0.00 0.00 40 1009.7
20260508021513 69 224 0.0 0.0 0.00 0.00 0.00 39 1009.6
20260508020010 72 241 0.0 0.0 0.00 0.00 0.00 24 1009.7
20260508014508 73 241 0.0 0.0 0.00 0.00 0.00 23 1009.7
20260508013008 74 276 0.0 0.0 0.00 0.00 0.00 19 1009.7
20260508011512 75 276 0.0 0.0 0.00 0.00 0.00 15 1009.7
20260508010006 75 287 0.0 0.0 0.00 0.00 0.00 15 1009.8
20260508004504 75 289 0.0 0.0 0.00 0.00 0.00 19 1009.9
20260508003005 75 286 0.0 0.0 0.00 0.00 0.00 23 1009.9